Location: Sach�?n
(35.0842°N, 128.0886°E)
Time: 22:28:26
(UTC+00:00)

Daily predictions for brighter satellites

Satellite Brightness Start Highest point End
(mag) Time Altitude Azimuth Time Altitude Azimuth Time Altitude Azimuth
Meteor 1-12 Rocket 4.2 12:01:20 10° N 12:07:01 78° E 12:11:08 20° SSE
Cosmos 676 Rocket 4.5 12:01:51 10° NNW 12:07:02 59° WSW 12:11:23 15° S
STARLINK-1096 4.3 12:04:11 10° NW 12:08:11 45° NE 12:10:05 26° E
Cosmos 1461 4.0 12:04:20 10° SW 12:08:14 45° WNW 12:12:20 10° NNE
Cosmos 2142 Rocket 4.4 12:04:28 10° N 12:10:39 87° E 12:15:34 17° S
Lacrosse 5 1.8 12:07:23 10° NW 12:12:27 78° NE 12:14:57 30° SE
Nadezhda 4 Rocket 4.3 12:09:08 23° SSE 12:12:40 45° E 12:18:26 10° NNE
STARLINK-1079 4.1 12:09:08 10° NW 12:13:10 50° NE 12:14:51 30° E
Sakura Rocket 4.5 12:08:25 10° WSW 12:14:36 53° S 12:20:06 22° ESE
GPS 2-04 Rocket1 2.3 12:13:27 10° W 12:16:58 85° N 12:18:10 39° E
NOSS 2-2 (C) 3.1 12:13:48 10° SW 12:17:23 77° WNW 12:21:03 10° NNE
STARLINK-1116 4.0 12:14:06 10° NW 12:18:11 55° NE 12:19:39 34° ESE
ATLAS 2AS CENTAUR R/B 3.8 12:18:50 25° SE 12:20:37 27° ESE 12:27:01 10° NE
Chunghua 1 4.4 12:18:12 10° W 12:22:03 85° S 12:23:26 38° E
Aureole 2 Rocket 3.0 12:19:09 11° SSW 12:22:08 48° WNW 12:25:05 10° N
ATLAS 3B CENTAUR R/B 3.8 12:08:54 10° WSW 12:25:25 57° S 12:30:21 25° ESE
Cosmos 2279 Rocket 4.0 12:21:14 10° N 12:27:29 83° W 12:31:40 22° S
Landsat 7 4.1 12:26:34 37° SE 12:28:05 52° ENE 12:32:43 10° N
STARLINK-1094 3.7 12:24:00 10° NW 12:28:07 69° NE 12:29:12 46° ESE
STARLINK-1117 3.6 12:28:58 10° NW 12:33:07 76° NE 12:34:00 53° ESE
VEP-3 4.0 12:30:50 10° SW 12:34:14 20° S 12:34:14 20° S
STARLINK-1078 3.5 12:33:56 10° NW 12:38:05 85° NE 12:38:47 61° SE
STARLINK-60 3.2 12:36:39 10° SW 12:39:47 65° NW 12:42:56 10° NE
SL-4 R/B 2.2 12:35:44 10° SW 12:40:22 86° SE 12:45:14 10° NE
OAO 1 4.4 12:35:52 10° WSW 12:41:23 79° SSE 12:44:22 28° E
Meteor 1-15 Rocket 4.3 12:36:24 10° N 12:42:20 74° E 12:44:34 40° SSE
STARLINK-1108 3.4 12:38:55 10° NW 12:43:04 86° SW 12:43:33 68° SE
USA 245 3.1 12:44:18 56° NNW 12:44:18 56° NNW 12:46:31 10° NNW
BREEZE-M DEB (TANK) 2.5 12:43:25 53° SW 12:44:05 89° SE 12:50:03 10° NE
Resurs 01 Rocket 3.0 12:43:52 19° SSW 12:46:24 33° W 12:50:25 10° NNW
ISS -3.3 12:43:26 10° NW 12:46:21 54° W 12:46:21 54° W
Cosmos 1943 Rocket 2.0 12:44:26 31° S 12:47:08 73° ESE 12:52:42 10° NNE
SPOT 5 3.6 12:46:34 38° E 12:47:35 42° ENE 12:52:36 10° N
STARLINK-1071 3.4 12:43:53 10° NW 12:48:01 78° SW 12:48:20 72° S
deb Kosmos-1763 4.1 12:45:03 10° NNW 12:48:22 67° NE 12:48:22 67° NE
Okean 1 Rocket 2.9 12:44:55 10° N 12:49:22 74° E 12:49:53 64° SE
STARLINK-1110 3.5 12:47:38 10° NW 12:51:46 71° SW 12:51:56 70° SSW
Cosmos 1833 Rocket 4.3 12:49:22 10° NW 12:54:01 27° WSW 12:57:21 16° SSW
Cosmos 1378 3.1 12:55:34 79° NNW 12:55:34 79° NNW 12:59:04 10° N
STARLINK-1124 3.7 12:53:52 10° NW 12:57:54 61° SW 12:57:54 61° SW
Cosmos 1092 Rocket 3.9 12:56:59 45° SSE 12:58:49 68° E 13:04:55 10° NNE
CARTOSAT-1 3.7 12:58:56 57° ENE 12:58:56 57° ENE 13:03:11 10° N
ERS-1 Rocket 2.9 12:59:36 58° ESE 13:00:20 66° ENE 13:05:20 10° N
H-2A R/B 4.4 12:57:16 10° SW 12:58:10 13° SSW 12:58:10 13° SSW
Cosmos 2082 Rocket 3.1 12:57:07 10° NW 13:02:25 41° WSW 13:04:41 28° SSW
STARLINK-1122 4.0 12:58:54 10° NW 13:02:42 53° WSW 13:02:42 53° WSW
Cosmos 2369 Rocket 2.1 13:04:22 52° S 13:05:46 74° ESE 13:11:25 10° NNE
STARLINK-1126 4.2 13:03:40 10° WNW 13:07:14 47° WSW 13:07:14 47° WSW
Terra 2.1 13:13:10 52° ENE 13:13:10 52° ENE 13:17:43 10° N
Cosmos 2195 Rocket 4.4 13:11:34 52° SSE 13:13:12 77° E 13:19:29 10° N
Cosmos 1627 Rocket 4.5 13:12:06 54° SSE 13:13:29 70° E 13:19:50 10° NNE
Cosmos 1656 Rocket 4.4 13:16:41 38° ENE 13:16:41 38° ENE 13:20:54 10° NE
Cosmos 1428 Rocket 4.5 13:16:50 57° SE 13:17:50 65° E 13:24:03 10° NNE
Cosmos 1766 4.0 13:23:25 10° N 13:26:34 53° NNW 13:26:34 53° NNW
Meteor 1-22 Rocket 4.0 13:23:31 10° N 13:29:21 87° E 13:29:48 76° SSE
CENTAUR R/B 3.9 13:24:14 10° NNW 13:31:59 43° NE 13:35:32 30° E
SPOT 1/Viking Rocket 4.4 13:31:33 38° SW 13:32:26 41° W 13:37:17 10° NNW
Cosmos 2026 Rocket 4.1 13:41:04 56° SW 13:42:24 73° W 13:48:44 10° N
NOSS 3-4 (A) 3.2 13:42:35 76° SSW 13:43:06 89° SE 13:49:17 10° NNE
NOSS 3-4 (C) 3.2 13:42:45 77° SSW 13:43:13 88° ESE 13:49:24 10° NNE
Cosmos 1553 Rocket 4.0 13:47:25 10° N 13:53:34 62° E 13:53:34 62° E
Lacrosse 5 4.2 13:52:34 10° W 13:54:09 13° WSW 13:54:09 13° WSW
Cosmos 1975 Rocket 4.5 13:55:46 32° WNW 13:55:46 32° WNW 13:59:43 10° NNW
ATLAS CENTAUR R/B 3.1 14:00:44 29° NNE 14:00:44 29° NNE 14:02:52 10° NNE
Cosmos 1655 Rocket 4.0 13:59:16 63° ENE 13:59:16 63° ENE 14:05:09 10° NNE
Cosmos 1486 Rocket 4.2 13:56:54 10° NNW 14:01:27 66° N 14:01:27 66° N
BREEZE-M DEB (TANK) 3.2 13:57:39 10° NW 14:05:15 78° NNW 14:05:15 78° NNW
Cosmos 1025 Rocket 4.5 14:11:36 35° N 14:11:36 35° N 14:14:11 10° N
ATLAS 2AS CENTAUR R/B 3.4 14:06:07 24° SW 14:11:06 62° NW 14:19:02 10° NNE
Cosmos 2266 Rocket 4.2 14:14:42 56° ENE 14:14:42 56° ENE 14:19:54 10° NNE
COSMOS 2455 2.9 14:20:35 75° NNW 14:20:35 75° NNW 14:26:20 10° NNE
NOSS 3-2 (A) 4.1 14:12:48 10° NW 14:20:38 66° WSW 14:21:37 61° SSW
Meteor 2-8 Rocket 4.5 14:14:58 10° N 14:20:42 73° NE 14:20:42 73° NE
Milstar 3 Cent rocket 4.4 14:10:51 10° WSW 14:21:31 65° SSE 14:45:19 10° E
SeaSat 1 3.1 14:18:30 10° NNE 14:22:15 51° N 14:22:15 51° N
Cosmos 1867 4.3 14:19:55 10° NNW 14:24:32 48° NNE 14:24:32 48° NNE
USA 238 DEB 4.1 14:25:38 10° NW 14:32:42 53° WSW 14:32:42 53° WSW
USA 238 4.1 14:25:43 10° NW 14:32:48 53° WSW 14:32:49 53° WSW
ATLAS 3B CENTAUR R/B 4.3 14:39:39 10° W 14:44:33 25° WSW 14:44:33 25° WSW
Terra 4.3 14:52:03 13° W 14:52:03 13° W 14:53:20 10° WNW
Cosmos 2315 Rocket 4.3 15:15:18 10° N 15:20:35 62° NW 15:20:35 62° NW
CENTAUR R/B 3.6 15:14:55 10° NW 15:22:42 48° WSW 15:22:42 48° WSW
ATLAS 3B R/B 2.7 15:19:47 10° NNW 15:26:08 77° NW 15:26:08 77° NW
FALCON 9 R/B 3.3 15:35:10 48° E 15:35:10 48° E 15:44:50 10° E
Meteor 1-24 Rocket 4.4 15:34:48 49° N 15:34:48 49° N 15:38:44 10° N
Cosmos 1980 Rocket 4.3 15:43:03 15° E 15:43:03 15° E 15:45:09 10° ENE
Nadezhda 1 Rocket 4.5 15:43:11 10° N 15:48:59 51° ENE 15:48:59 51° ENE
CZ-2D R/B 4.3 15:50:51 10° ENE 15:53:05 15° E 15:53:05 15° E
Cosmos 2219 3.7 15:56:22 10° NNW 16:01:08 55° NNE 16:01:08 55° NNE
Cosmos 2297 Rocket 2.8 15:59:34 10° NNW 16:04:39 51° NE 16:04:39 51° NE
CZ-4C R/B 2.8 16:07:53 47° NNE 16:07:53 47° NNE 16:11:51 10° NNE
Cosmos 1656 4.3 16:22:01 50° NW 16:22:01 50° NW 16:26:48 10° N
Cosmos 1745 Rocket 4.2 16:22:07 60° NW 16:22:07 60° NW 16:27:35 10° N
Meteor 1-21 Rocket 4.4 16:26:41 67° NNE 16:26:41 67° NNE 16:31:37 10° N
Cosmos 1697 Rocket 2.9 16:30:00 67° NNE 16:30:00 67° NNE 16:34:53 10° NNE
Cosmos 841 Rocket 4.1 16:34:04 51° ENE 16:34:04 51° ENE 16:38:14 10° NNE
SJ 16-02 2.9 16:31:16 10° NNW 16:33:44 33° N 16:33:44 33° N
Cosmos 1455 4.5 16:35:13 10° N 16:36:45 23° N 16:36:45 23° N
Cosmos 2227 Rocket 2.4 16:36:26 10° NNW 16:41:14 65° NNW 16:41:14 65° NNW
Cosmos 1763 Rocket 4.3 16:45:38 44° NW 16:45:38 44° NW 16:49:37 10° N
USA 215 3.3 16:45:55 58° W 16:45:55 58° W 16:51:30 10° NW
GP-B 4.4 16:43:24 10° NNE 16:46:47 36° ENE 16:46:47 36° ENE
SL-16 R/B 4.1 16:48:53 17° ESE 16:49:44 18° E 16:53:26 10° ENE
Lacrosse 4 Rocket 2.8 16:47:04 10° N 16:50:18 36° NNE 16:50:18 36° NNE
SL-16 R/B 3.1 16:50:11 41° ESE 16:51:56 53° ENE 16:57:55 10° N
Cosmos 2181 Rocket 4.3 16:46:37 10° N 16:53:02 64° E 16:54:13 54° SE
MOZ.5/SAFIR/RUBIN 5/SL-8 4.3 16:53:50 54° NE 16:53:50 54° NE 16:57:44 10° N
Cosmos 1953 Rocket 4.5 16:54:59 47° NE 16:54:59 47° NE 16:58:16 10° NNE
ADEOS II 3.8 16:51:28 10° NE 16:55:34 23° E 16:56:29 22° ESE
CZ-4C R/B 4.5 16:57:23 47° NNE 16:57:23 47° NNE 17:00:53 10° N
Meteor 1-11 4.2 17:04:11 68° ESE 17:04:25 69° E 17:09:58 10° NNE
Cosmos 1709 Rocket 4.4 17:10:42 46° W 17:10:43 46° W 17:16:36 10° N
Resurs 1-4 Rocket 2.0 17:12:37 10° N 17:17:55 75° WNW 17:17:57 75° W
Cosmos-2242 4.0 17:14:45 10° NNW 17:17:32 39° NNW 17:17:32 39° NNW
Cosmos 1980 Rocket 2.4 17:24:49 54° W 17:25:09 55° WNW 17:30:41 10° NNE
GEOS 3 Rocket 4.0 17:23:10 21° SE 17:26:36 61° NE 17:31:47 10° NNW
Cosmos 2285 Rocket 3.9 17:20:35 10° NNW 17:26:55 75° WSW 17:27:59 61° SSW
IRS-1D 3.7 17:21:57 10° NNE 17:27:11 62° E 17:27:55 56° SE
AQUA 3.7 17:23:53 10° NNE 17:28:36 85° NW 17:28:36 85° NW
NOSS 2-1 (D) 4.5 17:31:44 33° ENE 17:31:44 33° ENE 17:33:54 10° NE
STARLINK-1269 4.3 17:26:57 10° NW 17:31:00 53° NE 17:33:30 21° ESE
Cosmos 540 Rocket 4.3 17:32:54 36° WNW 17:32:54 36° WNW 17:37:38 10° N
Cosmos 489 Rocket 4.5 17:33:04 56° WSW 17:34:08 66° WNW 17:40:21 10° NNE
CZ-2D R/B 2.3 17:29:07 10° N 17:34:11 52° WNW 17:34:24 52° W
STARLINK-1200 4.1 17:31:53 10° NW 17:35:59 58° NE 17:38:13 25° ESE
STARLINK-1287 4.5 17:40:06 41° ESE 17:40:06 41° ESE 17:43:29 10° ENE
Cosmos 1937 Rocket 4.3 17:35:01 10° NNW 17:38:59 37° WNW 17:38:59 37° WNW
STARLINK-1192 3.9 17:36:52 10° NW 17:40:59 65° NE 17:42:57 29° ESE
Iridium 2 4.3 17:37:48 10° N 17:41:28 49° E 17:41:31 49° E
STARLINK-48 3.9 17:42:03 60° NNE 17:42:03 60° NNE 17:45:22 10° NE
ARIANE 5 R/B 3.6 17:37:36 10° NNE 17:42:13 37° E 17:44:07 27° SE
Meteor 2-17 Rocket 4.4 17:40:34 48° S 17:42:27 83° E 17:48:36 10° N
Cosmos 2150 Rocket 4.2 17:40:14 10° N 17:45:22 65° ENE 17:48:01 28° SE
STARLINK-1244 3.7 17:41:49 10° NW 17:45:57 73° NE 17:47:40 34° ESE
Uosat 12 SS-18 rocket 4.0 17:43:11 10° NNW 17:47:33 83° WSW 17:48:01 71° S
CZ-4B R/B 3.8 17:42:39 10° N 17:47:45 54° WNW 17:48:27 50° W
Cosmos 2297 Rocket 4.1 17:45:01 10° WNW 17:46:25 14° WNW 17:46:25 14° WNW
STARLINK-1302 3.9 17:49:40 55° ESE 17:49:40 55° ESE 17:53:32 10° NE
STARLINK-1138 3.6 17:46:47 10° NW 17:50:56 81° NE 17:52:23 39° SE
Cosmos 2263 Rocket 3.2 17:46:49 10° N 17:52:10 45° ENE 17:57:28 10° SE
STARLINK-1278 3.6 17:52:24 75° SE 17:52:26 75° SE 17:56:41 10° NE
ATLAS CENTAUR R/B 3.0 17:49:22 10° NW 17:53:18 51° SW 18:03:03 10° SSE
STARLINK-1280 3.5 17:54:10 77° SSE 17:54:16 78° SE 17:58:32 10° NE
STARLINK-1273 3.7 17:54:24 63° SE 17:54:24 63° SE 17:58:29 10° NE
Cosmos 2074 Rocket 4.2 17:54:19 44° SW 17:55:51 54° W 18:02:00 10° N
CZ-4C R/B 4.3 17:53:15 10° WNW 17:55:52 14° NW 17:58:40 10° N
STARLINK-1143 3.5 17:51:44 10° NW 17:55:53 89° ENE 17:57:10 43° SE
STARLINK-1288 3.5 17:59:13 70° SSE 17:59:23 71° SE 18:03:31 10° NE
CRYOSAT 2 4.4 17:55:05 10° N 17:59:54 59° W 18:00:38 53° WSW
Meteor 1-27 4.1 17:54:39 10° NNW 18:00:12 74° W 18:02:09 41° S
Cosmos 2322 Rocket 2.3 17:58:50 39° S 18:00:54 67° ESE 18:06:28 10° NNE
STARLINK-1241 3.4 17:56:45 10° NW 18:00:54 82° SW 18:01:51 52° SSE
SL-08 R/B 3.9 17:59:51 17° SE 18:03:16 53° ENE 18:07:46 10° N
Cosmos 1869 3.5 18:00:04 10° N 18:03:54 64° E 18:04:54 44° SE
STARLINK-1308 3.4 18:04:02 72° SSW 18:04:23 81° SE 18:08:32 10° NE
Cosmos 1408 4.0 18:03:21 25° SE 18:04:40 33° E 18:08:01 10° NNE
In-Cosmos 22 Rocket 4.3 18:02:14 35° S 18:04:45 78° E 18:10:20 10° NNE
STARLINK-1239 3.4 18:01:44 10° NW 18:05:52 73° SW 18:06:36 56° SSE
Cosmos 372 Rocket 4.0 18:01:07 10° NNW 18:06:09 55° WSW 18:07:08 47° SW
H-2A R/B 4.0 18:06:12 10° SE 18:09:57 29° ENE 18:13:46 10° N
Timation 1 Rocket 4.2 18:04:12 10° NNW 18:10:11 81° WSW 18:15:31 13° SSE
Cosmos 2298 Rocket 4.0 18:05:06 10° NNW 18:10:21 64° WSW 18:12:24 36° S
STARLINK-1240 3.5 18:06:42 10° NW 18:10:48 65° SW 18:11:17 59° S
Cosmos 1125 Rocket 3.7 18:06:41 10° NNW 18:11:52 70° ENE 18:17:03 10° SSE
Cosmos 1400 Rocket 4.1 18:08:48 10° NNW 18:11:36 27° WNW 18:11:36 27° WNW
STARLINK-1304 3.5 18:13:34 59° WSW 18:14:18 83° NW 18:18:27 10° NE
Cosmos 2058 2.8 18:13:36 52° SSW 18:14:34 84° W 18:18:48 10° N
STARLINK-1216 3.5 18:11:41 10° NW 18:15:46 58° SW 18:16:01 56° SSW
STARLINK-64 4.0 18:15:38 38° WNW 18:16:05 40° NW 18:19:29 10° NNE
Meteor 1-28 Rocket 4.2 18:13:33 15° SE 18:16:24 44° ENE 18:19:59 10° N
STARLINK-1203 3.6 18:14:31 10° NW 18:18:36 54° SW 18:22:41 10° SSE
IRIDIUM 104 4.2 18:17:38 35° SSW 18:19:52 74° W 18:25:06 10° N
NOSS 2-1 (E) 3.5 18:20:05 41° WNW 18:20:20 42° NW 18:23:38 10° NNE
STARLINK-1237 3.7 18:16:44 10° NW 18:20:45 51° SW 18:20:49 51° SW
STARLINK-1286 3.8 18:22:47 43° WSW 18:23:56 64° NW 18:28:04 10° NE
Cosmos 2227 4.1 18:18:56 10° NNW 18:24:42 79° WSW 18:30:26 10° SSE
CZ-2D R/B 3.7 18:20:49 10° NNE 18:25:04 69° ESE 18:27:16 28° S
STARLINK-1202 3.8 18:21:43 10° WNW 18:29:58 - SSE 18:25:32 45° WSW
Cosmos 1076 Rocket 3.5 18:25:14 41° SSW 18:26:36 65° W 18:30:57 10° N
Cosmos 1892 2.8 18:27:15 47° SW 18:27:59 57° W 18:31:44 10° N
IRIDIUM 114 4.4 18:26:47 32° SSW 18:29:01 59° W 18:34:11 10° N
IRS-1C 4.4 18:25:29 10° N 18:30:39 51° WNW 18:33:01 30° SW
Skynet4D Del rocket 4.4 18:30:15 29° SW 18:31:48 34° SSW 18:36:53 10° SE
SL-16 R/B 2.5 18:30:45 30° SW 18:33:20 52° WNW 18:38:52 10° N
STARLINK-1281 4.0 18:32:40 33° W 18:34:13 54° NW 18:38:16 10° NE
STARLINK-69 4.4 18:33:47 27° S 18:35:02 36° SE 18:38:28 10° ENE
ADEOS II 2.8 18:30:30 10° N 18:35:17 37° WNW 18:37:25 26° WSW
STARLINK-1246 4.2 18:31:48 10° WNW 18:39:40 - SSE 18:35:00 34° WSW
SL-16 R/B 3.8 18:35:16 20° W 18:35:47 20° W 18:40:12 10° NW
STARLINK-25 4.4 18:35:06 26° SSE 18:36:14 33° SE 18:39:28 10° ENE
STARLINK-21 4.5 18:35:12 26° S 18:36:32 34° SE 18:39:56 10° ENE
SL-8 Rocket 4.1 18:32:09 14° S 18:37:37 79° E 18:43:54 10° N
STARLINK-45 4.2 18:36:58 28° S 18:38:19 40° SE 18:41:49 10° ENE
STARLINK-1310 4.2 18:37:28 29° W 18:39:12 48° NW 18:43:14 10° NE
STARLINK-70 4.2 18:38:27 27° S 18:39:52 40° SE 18:43:22 10° ENE
STARLINK-1224 4.5 18:36:51 10° WNW 18:44:30 - SSE 18:39:43 29° WSW
STARLINK-76 4.3 18:39:56 26° S 18:41:25 39° SE 18:44:54 10° ENE
Cosmos 2151 3.1 18:38:34 19° S 18:41:34 72° E 18:45:50 10° NNE
Cosmos 1315 Rocket 3.3 18:38:49 10° NNW 18:42:27 37° W 18:43:25 32° SW
STARLINK-23 4.2 18:41:30 26° S 18:43:03 40° SE 18:46:34 10° ENE
Cosmos 783 Rocket 4.5 18:40:37 25° SSW 18:43:47 74° WNW 18:49:06 10° NNE
STARLINK-1319 4.3 18:42:14 25° W 18:44:11 44° NW 18:48:10 10° NNE
STARLINK-32 4.1 18:43:04 26° S 18:44:41 42° SE 18:48:12 10° ENE
STARLINK-40 4.0 18:44:39 26° S 18:46:18 44° SE 18:49:51 10° ENE
Cosmos 773 Rocket 4.2 18:42:33 17° S 18:46:32 72° ESE 18:51:47 10° NNE
IDEFIX/ARIANE 42P 2.6 18:41:40 10° NNE 18:46:57 84° ESE 18:51:23 15° S
STARLINK-44 4.0 18:46:11 26° S 18:47:53 46° SE 18:51:27 10° ENE
STARLINK-1277 4.5 18:47:03 22° W 18:49:12 40° NW 18:53:07 10° NNE
ERS-2 2.0 18:46:28 16° S 18:49:15 70° WSW 18:52:54 10° NNW
Shenzhou-11 Module 3.9 18:48:20 14° NW 18:49:35 19° NNW 18:51:26 10° NE
STARLINK-37 3.8 18:47:57 27° SSW 18:49:42 53° SE 18:53:20 10° NE
ERBS 4.3 18:46:50 10° WNW 18:47:37 15° WNW 18:47:37 15° WNW
STARLINK-36 3.8 18:49:19 25° SSW 18:51:09 50° SE 18:54:45 10° NE
STARLINK-61 4.0 18:51:14 24° WSW 18:53:14 49° NW 18:57:04 10° NE
COBE Rocket 4.1 18:49:39 14° S 18:53:48 54° W 18:58:48 10° NNW
STARLINK-63 3.6 18:52:36 25° SSW 18:54:32 59° SE 18:58:11 10° NE
STARLINK-35 3.6 18:54:04 24° SSW 18:56:04 57° SE 18:59:43 10° NE
STARLINK-1019 4.4 18:53:53 19° SSW 18:56:29 42° SE 19:00:24 10° ENE
STARLINK-51 3.6 18:55:39 24° SSW 18:57:42 60° SE 19:01:22 10° NE
STARLINK-68 3.5 18:55:44 24° SSW 18:57:53 69° SE 19:01:40 10° NE
Cosmos 2221 3.8 18:55:25 10° NW 18:58:50 23° W 19:00:08 20° WSW
STARLINK-30 3.5 18:57:13 23° SSW 18:59:20 63° SE 19:03:00 10° NE
Cosmos 2084 Rocket 4.4 18:55:33 10° NW 18:59:23 28° WSW 19:02:55 11° S
Cosmos 2333 Rocket 3.5 18:55:14 10° S 19:00:21 37° ESE 19:05:31 10° NE
STARLINK-72 3.5 18:58:47 23° SSW 19:00:58 66° SE 19:04:39 10° NE
STARLINK-1012 4.2 18:58:41 18° SSW 19:01:27 48° SE 19:05:27 10° ENE
Cosmos 2360 Rocket 2.2 18:57:14 18° SSW 19:01:30 72° WNW 19:07:08 10° NNE
USA 234 4.1 18:56:05 10° ENE 19:02:13 42° SE 19:08:19 10° SSW
STARLINK-59 3.3 19:02:02 22° SW 19:04:19 77° SE 19:08:03 10° NE
STARLINK-56 3.4 19:03:30 21° SW 19:05:51 75° SE 19:09:34 10° NE
STARLINK-73 3.3 19:05:03 20° SW 19:07:28 79° SE 19:11:11 10° NE
MSX 3.9 19:01:54 10° NNE 19:07:41 88° ESE 19:13:25 10° SSW
STARLINK-38 3.3 19:06:37 20° SW 19:09:05 82° SE 19:12:47 10° NE
CZ-4C R/B 3.1 19:06:04 10° S 19:09:37 60° W 19:13:13 10° NNW
Cosmos 2322 4.0 19:04:11 10° S 19:09:50 69° ESE 19:15:32 10° NNE
CZ-4B R/B 3.6 19:07:28 10° SE 19:10:02 25° ENE 19:12:39 10° NNE
STARLINK-65 3.3 19:08:13 19° SW 19:10:45 85° SE 19:14:28 10° NE
STARLINK-1026 3.9 19:08:16 16° SSW 19:11:24 61° SE 19:15:29 10° NE
Cosmos 1339 Rocket 4.4 19:06:16 10° N 19:12:23 78° W 19:18:32 10° S
STARLINK-53 3.3 19:09:52 19° SW 19:12:28 86° NW 19:16:12 10° NE
SAR-Lupe-4 4.5 19:10:02 10° SSE 19:13:30 52° ENE 19:17:01 10° N
Cosmos 1825 2.8 19:12:10 17° SW 19:14:39 37° W 19:18:10 10° N
PSLV R/B 3.7 19:12:04 10° NNE 19:16:16 72° ESE 19:20:25 10° S
STARLINK-1013 3.8 19:13:02 15° SW 19:16:20 68° SE 19:20:28 10° NE
Meteor 2-3 Rocket 4.3 19:10:51 10° S 19:16:20 59° E 19:21:50 10° NNE
Cosmos 2344 4.4 19:10:42 10° S 19:18:05 47° ESE 19:25:14 10° NE
Cosmos 2333 4.3 19:13:20 10° SSW 19:18:53 78° ESE 19:24:30 10° NNE
USA 229 DEB 4.0 19:12:29 10° NW 19:19:47 62° WSW 19:27:20 10° SSE
USA 229 3.9 19:12:35 10° NW 19:19:54 62° WSW 19:27:26 10° SSE
ARIANE 5 R/B 3.9 19:17:19 10° NNW 19:21:03 21° WNW 19:24:27 11° WSW
STARLINK-1009 3.7 19:17:49 14° SW 19:21:18 77° SE 19:25:27 10° NE
Cosmos 2219 Rocket 2.8 19:16:40 10° S 19:22:05 55° ESE 19:27:32 10° NNE
NOSS 3-1 (C) 4.3 19:15:42 10° NW 19:23:29 56° WSW 19:32:05 10° S
SL-4 R/B 3.7 19:19:45 10° NW 19:24:14 42° NE 19:28:26 10° ESE
STARLINK-1015 3.6 19:22:35 13° SW 19:26:16 85° SE 19:30:25 10° NE
Cosmos 2366 rocket 4.2 19:20:30 10° SSW 19:26:31 52° W 19:32:38 10° N
NOSS 3-1 (A) 4.2 19:21:14 10° NW 19:29:13 77° WSW 19:38:05 10° SSE
SAR-Lupe-1 4.2 19:25:42 10° SSE 19:29:14 80° ENE 19:32:48 10° N
Cosmos 1408 Rocket 3.5 19:26:14 10° S 19:30:33 81° W 19:34:51 10° N
STARLINK-1016 3.6 19:27:23 12° SW 19:31:16 86° NW 19:35:25 10° NE
Okean 3 Rocket 4.4 19:28:28 10° SW 19:32:38 36° WNW 19:36:49 10° NNW
Cosmos 2263 Rocket 3.4 19:31:42 10° NW 19:35:40 20° W 19:39:37 10° SW
STARLINK-1008 3.7 19:32:11 10° SW 19:36:15 77° NW 19:40:23 10° NE
STARLINK-71 4.0 19:32:32 10° WSW 19:36:23 53° NW 19:40:20 10° NE
Cosmos 1340 3.3 19:36:04 10° S 19:39:45 58° E 19:43:27 10° NNE
STARLINK-1014 3.7 19:37:09 10° SW 19:41:14 69° NW 19:45:20 10° NE
Cosmos 1633 3.2 19:38:55 10° S 19:42:24 57° E 19:45:57 10° NNE
Landsat 5 4.5 19:39:12 10° SSW 19:43:11 31° W 19:47:10 10° NW
Cosmos 1818 4.5 19:38:33 10° S 19:43:42 48° ESE 19:48:55 10° NE
Cosmos 1766 Rocket 4.5 19:40:26 10° SW 19:44:16 30° WNW 19:48:06 10° NNW
ATLAS 5 CENTAUR R/B 3.4 19:41:15 10° S 19:44:35 25° ESE 19:48:06 10° ENE
Cosmos 2322 Rocket 4.0 19:42:05 10° W 19:45:25 16° NW 19:48:46 10° NNW
Lacrosse 5 rocket 2.8 19:42:10 10° S 19:45:47 30° SE 19:49:14 10° ENE
H-2A R/B 3.4 19:42:34 10° SW 19:45:52 21° W 19:49:14 10° NW
STARLINK-1025 3.8 19:42:07 10° SW 19:46:12 62° NW 19:50:19 10° NE
Cosmos 1821 Rocket 4.1 19:41:23 10° S 19:47:46 89° ENE 19:54:07 10° N
CZ-3 R/B 3.4 19:42:48 10° WSW 20:10:50 57° S 20:18:01 10° E
